Location: Bothwell
(42.3833°S, 147.0000°E)
Time: 13:58:58
(UTC+11:00)

OBJECT D - Pass Details

Date: 17 November 2025
Orbit: 437 x 585 km, 63.5° (Epoch: 12 December)

Event Time Altitude Azimuth Distance (km) Brightness Sun altitude
Exits shadow 04:25:23 - 3° (N) 2,374 ? -12.1°
Reaches altitude 10° 04:26:52 10° 13° (NNE) 1,875 ? -11.9°
Maximum altitude 04:30:10 23° 65° (ENE) 1,241 ? -11.5°
Drops below altitude 10° 04:33:25 10° 116° (ESE) 1,838 ? -11.0°
Sets 04:35:57 0° 131° (SE) 2,710 ? -10.6°
